Total_Precipitation_Accumulation
0.20 0.20 0.21 0.26 0.24 0.16 0.06 0.02 0.01 0.01 0.01 0.02 0.04 0.07 0.08 0.08 0.10 0.15 0.14 0.11 0.12 0.14 0.18 0.37 0.53 0.62 0.71 0.72 0.71 0.67 0.61 0.66 0.70 0.74 0.80 0.87 0.90 0.87 0.89 0.82 0.81 0.87 0.96 0.96 0.97 0.93 0.87 0.78 0.78
0.21 0.26 0.33 0.36 0.20 0.10 0.05 0.02 0.01 0.01 0.02 0.02 0.05 0.08 0.07 0.06 0.05 0.09 0.14 0.11 0.11 0.12 0.16 0.27 0.49 0.59 0.69 0.71 0.72 0.69 0.67 0.68 0.73 0.75 0.80 0.88 0.91 0.96 0.93 0.82 0.83 0.91 0.99 1.01 0.98 0.93 0.87 0.80 0.74
0.30 0.39 0.43 0.37 0.18 0.07 0.05 0.03 0.01 0.01 0.02 0.04 0.06 0.09 0.10 0.08 0.07 0.10 0.12 0.09 0.11 0.14 0.18 0.30 0.51 0.62 0.70 0.74 0.73 0.71 0.71 0.73 0.76 0.77 0.82 0.94 0.94 0.96 0.90 0.82 0.79 0.85 0.98 1.05 1.01 0.88 0.82 0.80 0.75
0.38 0.55 0.56 0.36 0.14 0.07 0.05 0.03 0.02 0.02 0.03 0.05 0.06 0.08 0.10 0.10 0.09 0.12 0.12 0.09 0.13 0.18 0.21 0.36 0.54 0.66 0.73 0.77 0.77 0.75 0.76 0.78 0.83 0.86 0.90 0.98 0.97 1.00 0.95 0.87 0.79 0.77 0.84 0.93 0.94 0.86 0.82 0.79 0.71
0.46 0.58 0.55 0.31 0.12 0.08 0.05 0.03 0.03 0.04 0.04 0.06 0.07 0.08 0.10 0.13 0.11 0.12 0.12 0.12 0.12 0.20 0.28 0.41 0.66 0.78 0.81 0.84 0.82 0.82 0.83 0.88 0.93 0.97 1.00 1.03 1.00 0.99 0.97 0.92 0.85 0.78 0.75 0.81 0.88 0.88 0.85 0.81 0.72
0.60 0.60 0.43 0.24 0.13 0.08 0.05 0.03 0.04 0.05 0.04 0.05 0.07 0.08 0.13 0.16 0.14 0.15 0.16 0.17 0.16 0.23 0.34 0.49 0.78 0.91 0.96 0.95 0.94 0.93 0.95 1.01 1.06 1.07 1.10 1.10 1.02 0.96 0.93 0.95 0.86 0.79 0.71 0.70 0.75 0.79 0.79 0.78 0.72
0.61 0.56 0.32 0.18 0.15 0.10 0.06 0.04 0.06 0.05 0.06 0.07 0.07 0.10 0.16 0.19 0.17 0.18 0.23 0.24 0.26 0.34 0.45 0.56 0.77 0.95 1.09 1.08 1.04 1.05 1.07 1.11 1.17 1.19 1.16 1.11 1.02 0.98 0.97 0.93 0.86 0.80 0.75 0.71 0.68 0.69 0.69 0.66 0.65
0.64 0.64 0.38 0.19 0.15 0.12 0.08 0.06 0.07 0.07 0.07 0.08 0.08 0.11 0.15 0.18 0.17 0.21 0.36 0.39 0.41 0.50 0.64 0.71 0.83 0.96 1.08 1.15 1.14 1.12 1.15 1.19 1.24 1.26 1.20 1.10 1.08 1.06 1.00 0.90 0.86 0.86 0.84 0.79 0.72 0.67 0.65 0.60 0.56
0.73 0.79 0.42 0.18 0.14 0.13 0.10 0.10 0.09 0.09 0.10 0.09 0.10 0.12 0.14 0.17 0.20 0.26 0.40 0.53 0.59 0.64 0.77 0.87 0.95 1.04 1.14 1.20 1.19 1.32 1.40 1.43 1.43 1.36 1.30 1.26 1.21 1.14 1.00 0.85 0.84 0.91 0.91 0.82 0.76 0.72 0.67 0.64 0.54
0.77 0.66 0.33 0.14 0.12 0.14 0.13 0.14 0.13 0.13 0.13 0.12 0.12 0.13 0.18 0.26 0.29 0.32 0.39 0.49 0.62 0.66 0.76 0.89 1.00 1.06 1.19 1.29 1.39 1.50 1.58 1.59 1.54 1.33 1.26 1.27 1.16 1.09 0.97 0.89 0.87 0.90 0.90 0.86 0.81 0.79 0.78 0.73 0.57
0.60 0.46 0.24 0.14 0.11 0.16 0.17 0.15 0.16 0.19 0.19 0.17 0.21 0.21 0.26 0.36 0.41 0.46 0.50 0.51 0.54 0.62 0.74 0.86 1.04 1.19 1.28 1.34 1.47 1.54 1.58 1.59 1.57 1.46 1.33 1.26 1.26 1.19 1.12 1.01 1.01 1.02 0.96 0.95 0.93 0.95 0.85 0.74 0.65
0.46 0.33 0.26 0.20 0.16 0.19 0.20 0.19 0.19 0.22 0.23 0.21 0.27 0.32 0.36 0.43 0.48 0.52 0.60 0.61 0.58 0.65 0.77 0.91 1.12 1.27 1.35 1.37 1.48 1.53 1.47 1.42 1.39 1.35 1.39 1.38 1.35 1.24 1.15 1.09 1.07 1.09 1.03 0.97 0.95 0.91 0.85 0.74 0.67
0.43 0.28 0.23 0.24 0.20 0.21 0.22 0.22 0.20 0.19 0.18 0.21 0.24 0.30 0.38 0.41 0.52 0.60 0.73 0.81 0.72 0.68 0.80 1.01 1.21 1.33 1.45 1.49 1.55 1.55 1.45 1.36 1.38 1.35 1.37 1.35 1.24 1.15 1.04 0.99 1.00 0.93 0.87 0.84 0.84 0.84 0.81 0.74 0.69
0.38 0.28 0.23 0.25 0.25 0.24 0.26 0.22 0.20 0.19 0.16 0.21 0.25 0.28 0.33 0.40 0.51 0.65 0.81 0.85 0.80 0.76 0.88 1.09 1.30 1.44 1.58 1.55 1.57 1.55 1.51 1.49 1.56 1.50 1.33 1.30 1.23 1.15 1.08 0.98 0.95 0.89 0.79 0.73 0.73 0.71 0.74 0.72 0.67
0.38 0.39 0.32 0.24 0.25 0.26 0.34 0.34 0.20 0.17 0.20 0.23 0.26 0.28 0.30 0.37 0.48 0.60 0.74 0.82 0.82 0.87 1.01 1.16 1.32 1.55 1.71 1.67 1.65 1.64 1.62 1.60 1.58 1.62 1.58 1.41 1.30 1.23 1.19 1.09 0.97 0.93 0.89 0.85 0.81 0.77 0.77 0.73 0.67
0.58 0.65 0.55 0.30 0.23 0.27 0.46 0.46 0.19 0.16 0.23 0.26 0.27 0.30 0.32 0.34 0.43 0.56 0.70 0.86 0.92 1.02 1.17 1.28 1.44 1.63 1.77 1.81 1.82 1.75 1.71 1.75 1.68 1.67 1.75 1.73 1.53 1.35 1.27 1.20 1.09 1.05 1.06 1.03 0.97 0.88 0.83 0.77 0.68
0.81 0.74 0.49 0.30 0.23 0.31 0.47 0.42 0.20 0.18 0.23 0.24 0.27 0.31 0.31 0.35 0.40 0.50 0.62 0.77 0.93 1.06 1.24 1.37 1.50 1.69 1.87 1.96 1.97 1.95 1.84 1.82 1.81 1.79 1.77 1.84 1.86 1.64 1.43 1.30 1.26 1.27 1.27 1.20 1.10 1.01 0.89 0.83 0.76
0.70 0.52 0.37 0.29 0.24 0.31 0.38 0.30 0.20 0.20 0.22 0.22 0.25 0.31 0.30 0.35 0.39 0.47 0.58 0.71 0.87 1.02 1.23 1.44 1.59 1.76 1.95 2.13 2.17 2.16 2.08 1.92 1.86 1.86 1.76 1.72 1.81 1.84 1.69 1.52 1.43 1.42 1.42 1.37 1.24 1.11 1.02 0.94 0.92
0.49 0.50 0.39 0.23 0.20 0.36 0.35 0.26 0.21 0.21 0.23 0.25 0.26 0.33 0.33 0.36 0.44 0.50 0.63 0.76 0.88 0.99 1.16 1.36 1.52 1.68 1.90 2.06 2.13 2.12 2.07 1.93 1.86 1.81 1.76 1.74 1.78 1.83 1.81 1.63 1.55 1.43 1.37 1.32 1.28 1.23 1.19 1.11 1.09
0.57 0.63 0.49 0.34 0.25 0.38 0.38 0.27 0.22 0.22 0.24 0.27 0.27 0.34 0.35 0.36 0.44 0.49 0.59 0.75 0.83 0.91 1.03 1.25 1.46 1.59 1.78 1.94 1.96 2.07 2.05 1.98 1.88 1.81 1.78 1.72 1.73 1.82 1.91 1.80 1.69 1.62 1.52 1.47 1.46 1.42 1.37 1.29 1.18
0.62 0.57 0.49 0.46 0.40 0.44 0.50 0.43 0.24 0.21 0.20 0.24 0.26 0.31 0.33 0.38 0.41 0.43 0.54 0.69 0.81 0.86 0.97 1.14 1.37 1.54 1.66 1.89 2.16 2.35 2.42 2.26 2.12 1.95 1.82 1.71 1.69 1.72 1.84 1.92 1.86 1.81 1.76 1.67 1.53 1.50 1.47 1.46 1.32
0.68 0.38 0.42 0.51 0.77 0.82 0.66 0.77 0.30 0.21 0.18 0.22 0.26 0.28 0.29 0.34 0.36 0.38 0.48 0.62 0.74 0.83 0.99 1.14 1.24 1.46 1.66 1.80 2.07 2.32 2.43 2.27 1.96 1.85 1.83 1.79 1.73 1.73 1.75 1.82 1.84 1.82 1.78 1.70 1.58 1.49 1.43 1.50 1.52
0.56 0.40 0.46 0.59 0.90 1.05 0.70 0.81 0.37 0.22 0.22 0.21 0.25 0.27 0.28 0.32 0.36 0.37 0.43 0.53 0.65 0.83 0.99 1.15 1.25 1.41 1.66 1.83 1.94 2.22 2.39 2.29 2.12 2.01 1.90 1.80 1.79 1.77 1.72 1.73 1.78 1.81 1.78 1.74 1.66 1.59 1.60 1.60 1.57
0.54 0.65 0.76 0.90 1.44 1.74 0.65 0.62 0.44 0.31 0.32 0.26 0.27 0.30 0.31 0.35 0.41 0.39 0.43 0.53 0.61 0.81 0.93 1.13 1.28 1.34 1.58 1.81 1.95 2.09 2.32 2.43 2.33 2.19 2.08 1.93 1.86 1.81 1.75 1.66 1.70 1.78 1.81 1.79 1.78 1.74 1.71 1.73 1.65
0.87 1.48 2.17 2.37 2.41 1.46 0.35 0.45 0.48 0.32 0.29 0.34 0.38 0.39 0.38 0.39 0.43 0.44 0.46 0.54 0.57 0.75 0.88 1.06 1.28 1.30 1.40 1.59 1.81 1.99 2.18 2.37 2.47 2.32 2.12 2.02 2.00 1.92 1.76 1.66 1.61 1.66 1.68 1.67 1.70 1.80 1.82 1.81 1.82
0.91 1.31 1.75 1.64 1.09 0.54 0.31 0.44 0.42 0.32 0.29 0.29 0.34 0.37 0.35 0.37 0.42 0.47 0.50 0.53 0.56 0.63 0.75 0.93 1.17 1.26 1.28 1.39 1.56 1.85 2.11 2.30 2.40 2.42 2.21 2.06 1.97 1.87 1.76 1.68 1.60 1.55 1.57 1.60 1.63 1.69 1.75 1.78 1.77
0.87 0.96 0.88 1.22 0.88 0.57 0.46 0.40 0.31 0.22 0.20 0.21 0.27 0.33 0.35 0.39 0.43 0.49 0.58 0.59 0.60 0.62 0.68 0.83 1.08 1.21 1.20 1.29 1.39 1.59 1.86 2.14 2.29 2.33 2.32 2.19 2.05 1.93 1.84 1.74 1.70 1.64 1.61 1.59 1.58 1.59 1.60 1.64 1.72
0.70 0.86 1.00 1.55 1.39 0.84 0.51 0.37 0.45 0.34 0.27 0.23 0.27 0.35 0.39 0.40 0.45 0.50 0.61 0.65 0.66 0.64 0.68 0.81 0.98 1.20 1.23 1.24 1.31 1.42 1.58 1.83 2.07 2.26 2.37 2.22 2.12 2.05 2.07 1.97 1.86 1.76 1.75 1.72 1.66 1.58 1.49 1.52 1.59
0.82 1.07 1.29 1.32 1.07 0.92 0.70 0.58 0.61 0.49 0.41 0.36 0.32 0.35 0.41 0.43 0.49 0.54 0.60 0.67 0.70 0.69 0.71 0.82 0.94 1.12 1.30 1.33 1.30 1.40 1.52 1.72 1.89 1.97 2.13 2.23 2.22 2.13 2.17 2.18 2.10 1.97 1.88 1.84 1.81 1.74 1.65 1.62 1.54
0.82 0.97 1.13 1.37 1.05 0.66 0.70 0.65 0.51 0.43 0.39 0.38 0.35 0.34 0.41 0.47 0.54 0.58 0.61 0.63 0.67 0.71 0.74 0.77 0.93 1.08 1.21 1.34 1.36 1.40 1.51 1.71 1.85 1.82 1.84 1.97 2.16 2.17 2.16 2.30 2.29 2.19 2.07 1.98 1.97 1.95 1.86 1.82 1.74